| time (UTC) | temp C | wind direction | speed KPH | gust KPH | rain 1hr cm | rain 24hr cm | rain mn cm | humidity % | barometer mb |
| 20260505024135 | 15 | 272 | 3.2 | 14.5 | 0.00 | 0.00 | 0.00 | 52 | 1009.5 |
| 20260505023036 | 15 | 307 | 6.4 | 14.5 | 0.00 | 0.00 | 0.00 | 52 | 1009.5 |
| 20260505022140 | 15 | 248 | 4.8 | 14.5 | 0.00 | 0.00 | 0.00 | 51 | 1009.5 |
| 20260505021137 | 15 | 198 | 3.2 | 12.9 | 0.00 | 0.00 | 0.00 | 50 | 1009.5 |
| 20260505020135 | 16 | 205 | 4.8 | 12.9 | 0.00 | 0.00 | 0.00 | 50 | 1009.5 |
| 20260505015135 | 16 | 293 | 3.2 | 17.7 | 0.00 | 0.00 | 0.00 | 49 | 1009.4 |
| 20260505014135 | 16 | 299 | 6.4 | 19.3 | 0.00 | 0.00 | 0.00 | 48 | 1009.2 |
| 20260505013135 | 16 | 277 | 4.8 | 19.3 | 0.00 | 0.00 | 0.00 | 48 | 1008.9 |
| 20260505012135 | 16 | 280 | 6.4 | 19.3 | 0.00 | 0.00 | 0.00 | 47 | 1008.7 |
| 20260505011137 | 17 | 307 | 4.8 | 20.9 | 0.00 | 0.00 | 0.00 | 47 | 1008.7 |
| 20260505010136 | 17 | 276 | 9.7 | 20.9 | 0.00 | 0.00 | 0.00 | 45 | 1008.5 |
| 20260505005135 | 17 | 287 | 11.3 | 20.9 | 0.00 | 0.00 | 0.00 | 45 | 1008.1 |
| 20260505004135 | 17 | 246 | 11.3 | 20.9 | 0.00 | 0.00 | 0.00 | 44 | 1007.8 |
| 20260505003136 | 18 | 287 | 6.4 | 20.9 | 0.00 | 0.00 | 0.00 | 43 | 1007.7 |
| 20260505002136 | 18 | 165 | 8.0 | 20.9 | 0.00 | 0.00 | 0.00 | 41 | 1007.5 |
| 20260505001135 | 18 | 277 | 8.0 | 17.7 | 0.00 | 0.00 | 0.00 | 40 | 1007.1 |
| 20260505000135 | 19 | 80 | 8.0 | 17.7 | 0.00 | 0.00 | 0.00 | 37 | 1006.9 |
| 20260504235136 | 19 | 333 | 6.4 | 17.7 | 0.00 | 0.00 | 0.00 | 37 | 1006.7 |
| 20260504234138 | 19 | 296 | 6.4 | 17.7 | 0.00 | 0.00 | 0.00 | 37 | 1006.3 |
| 20260504233136 | 20 | 20 | 3.2 | 17.7 | 0.00 | 0.00 | 0.00 | 36 | 1006.1 |
| 20260504232135 | 20 | 234 | 4.8 | 17.7 | 0.00 | 0.00 | 0.00 | 35 | 1006.2 |
| 20260504231135 | 20 | 237 | 9.7 | 17.7 | 0.00 | 0.00 | 0.00 | 35 | 1005.9 |
| 20260504230135 | 20 | 299 | 8.0 | 17.7 | 0.00 | 0.00 | 0.00 | 35 | 1005.9 |
| 20260504225135 | 21 | 294 | 4.8 | 17.7 | 0.00 | 0.00 | 0.00 | 35 | 1005.8 |
| 20260504224135 | 21 | 343 | 6.4 | 20.9 | 0.00 | 0.00 | 0.00 | 34 | 1005.7 |
| 20260504223135 | 21 | 28 | 9.7 | 20.9 | 0.00 | 0.00 | 0.00 | 34 | 1005.6 |
| 20260504222137 | 21 | 297 | 8.0 | 20.9 | 0.00 | 0.00 | 0.00 | 33 | 1005.6 |
| 20260504221136 | 21 | 327 | 8.0 | 20.9 | 0.00 | 0.00 | 0.00 | 34 | 1005.7 |
| 20260504220138 | 21 | 283 | 8.0 | 24.1 | 0.00 | 0.00 | 0.00 | 33 | 1005.7 |
| 20260504215135 | 22 | 190 | 8.0 | 24.1 | 0.00 | 0.00 | 0.00 | 33 | 1005.7 |
| 20260504214136 | 22 | 317 | 8.0 | 24.1 | 0.00 | 0.00 | 0.00 | 31 | 1005.7 |
| 20260504213135 | 22 | 327 | 3.2 | 29.0 | 0.00 | 0.00 | 0.00 | 32 | 1005.6 |
| 20260504212135 | 22 | 78 | 9.7 | 29.0 | 0.00 | 0.00 | 0.00 | 32 | 1005.7 |
| 20260504211135 | 22 | 16 | 9.7 | 29.0 | 0.00 | 0.00 | 0.00 | 31 | 1005.7 |
| 20260504210137 | 23 | 257 | 8.0 | 29.0 | 0.00 | 0.00 | 0.00 | 32 | 1005.7 |
| 20260504205136 | 22 | 124 | 6.4 | 29.0 | 0.00 | 0.00 | 0.00 | 32 | 1005.6 |
| 20260504204136 | 22 | 316 | 12.9 | 29.0 | 0.00 | 0.00 | 0.00 | 31 | 1005.5 |
| 20260504203138 | 22 | 339 | 9.7 | 25.7 | 0.00 | 0.00 | 0.00 | 31 | 1005.3 |
| 20260504202135 | 22 | 9 | 8.0 | 25.7 | 0.00 | 0.00 | 0.00 | 31 | 1005.5 |
| 20260504201137 | 22 | 266 | 9.7 | 25.7 | 0.00 | 0.00 | 0.00 | 30 | 1005.5 |
| 20260504200135 | 22 | 267 | 9.7 | 22.5 | 0.00 | 0.00 | 0.00 | 30 | 1005.7 |
| 20260504195135 | 23 | 344 | 8.0 | 27.4 | 0.00 | 0.00 | 0.00 | 29 | 1005.7 |
| 20260504194135 | 23 | 286 | 8.0 | 27.4 | 0.00 | 0.00 | 0.00 | 29 | 1005.7 |
| 20260504193137 | 23 | 303 | 12.9 | 35.4 | 0.00 | 0.00 | 0.00 | 29 | 1005.7 |
| 20260504192136 | 24 | 322 | 8.0 | 35.4 | 0.00 | 0.00 | 0.00 | 28 | 1005.7 |
| 20260504191135 | 25 | 333 | 11.3 | 35.4 | 0.00 | 0.00 | 0.00 | 28 | 1005.6 |
| 20260504190136 | 25 | 273 | 16.1 | 35.4 | 0.00 | 0.00 | 0.00 | 27 | 1005.9 |
| 20260504185136 | 24 | 351 | 6.4 | 35.4 | 0.00 | 0.00 | 0.00 | 28 | 1005.9 |
| 20260504184137 | 23 | 309 | 16.1 | 35.4 | 0.00 | 0.00 | 0.00 | 29 | 1006.0 |
| 20260504183136 | 22 | 328 | 16.1 | 27.4 | 0.00 | 0.00 | 0.00 | 30 | 1006.2 |
| 20260504182136 | 23 | 3 | 12.9 | 32.2 | 0.00 | 0.00 | 0.00 | 29 | 1006.1 |
| 20260504181136 | 23 | 266 | 14.5 | 32.2 | 0.00 | 0.00 | 0.00 | 28 | 1006.3 |
| 20260504180136 | 25 | 353 | 16.1 | 32.2 | 0.00 | 0.00 | 0.00 | 27 | 1006.3 |
| 20260504175136 | 24 | 241 | 8.0 | 32.2 | 0.00 | 0.00 | 0.00 | 30 | 1006.3 |
| 20260504174135 | 23 | 262 | 9.7 | 32.2 | 0.00 | 0.00 | 0.00 | 30 | 1006.4 |
| 20260504173135 | 23 | 1 | 16.1 | 32.2 | 0.00 | 0.00 | 0.00 | 31 | 1006.5 |
| 20260504172136 | 22 | 107 | 9.7 | 27.4 | 0.00 | 0.00 | 0.00 | 33 | 1006.5 |
| 20260504171135 | 21 | 302 | 9.7 | 27.4 | 0.00 | 0.00 | 0.00 | 33 | 1006.6 |
| 20260504170137 | 21 | 7 | 11.3 | 29.0 | 0.00 | 0.00 | 0.00 | 33 | 1006.7 |
| 20260504160136 | 20 | 261 | 11.3 | 24.1 | 0.00 | 0.00 | 0.00 | 36 | 1006.8 |
| 20260504151136 | 18 | 264 | 9.7 | 27.4 | 0.00 | 0.00 | 0.00 | 38 | 1007.8 |
| 20260504150136 | 18 | 325 | 8.0 | 27.4 | 0.00 | 0.00 | 0.00 | 41 | 1008.0 |
| 20260504141135 | 17 | 316 | 9.7 | 25.7 | 0.00 | 0.00 | 0.00 | 44 | 1008.4 |
| 20260504140136 | 17 | 278 | 11.3 | 25.7 | 0.00 | 0.00 | 0.00 | 45 | 1008.5 |
| 20260504130135 | 13 | 350 | 9.7 | 16.1 | 0.00 | 0.00 | 0.00 | 52 | 1009.2 |
| 20260504120136 | 10 | 279 | 4.8 | 12.9 | 0.00 | 0.00 | 0.00 | 62 | 1009.5 |
| 20260504110136 | 7 | 295 | 1.6 | 6.4 | 0.00 | 0.00 | 0.00 | 66 | 1009.5 |
| 20260504100135 | 6 | 274 | 1.6 | 4.8 | 0.00 | 0.00 | 0.00 | 70 | 1009.5 |
| 20260504090136 | 6 | 285 | 1.6 | 4.8 | 0.00 | 0.00 | 0.00 | 70 | 1009.4 |
| 20260504081136 | 6 | 243 | 1.6 | 4.8 | 0.00 | 0.00 | 0.00 | 71 | 1009.5 |
| 20260504080136 | 5 | 285 | 0.0 | 3.2 | 0.00 | 0.00 | 0.00 | 71 | 1009.5 |
| 20260504070136 | 5 | 242 | 0.0 | 3.2 | 0.00 | 0.00 | 0.00 | 73 | 1009.3 |
| 20260504060138 | 4 | 289 | 0.0 | 6.4 | 0.00 | 0.00 | 0.00 | 74 | 1009.4 |
| 20260504050134 | 2 | 283 | 3.2 | 4.8 | 0.00 | 0.00 | 0.00 | 75 | 1009.5 |
| 20260504045135 | 2 | 283 | 3.2 | 4.8 | 0.00 | 0.00 | 0.00 | 75 | 1009.5 |
| 20260504044134 | 2 | 285 | 3.2 | 4.8 | 0.00 | 0.00 | 0.00 | 75 | 1009.5 |
| 20260504043135 | 2 | 293 | 1.6 | 4.8 | 0.00 | 0.00 | 0.00 | 75 | 1009.5 |
| 20260504042135 | 2 | 298 | 3.2 | 4.8 | 0.00 | 0.00 | 0.00 | 74 | 1009.4 |
| 20260504041135 | 2 | 301 | 1.6 | 4.8 | 0.00 | 0.00 | 0.00 | 74 | 1009.4 |
| 20260504040135 | 2 | 301 | 1.6 | 4.8 | 0.00 | 0.00 | 0.00 | 73 | 1009.3 |
| 20260504035134 | 3 | 290 | 1.6 | 4.8 | 0.00 | 0.00 | 0.00 | 72 | 1009.2 |
| 20260504034135 | 3 | 296 | 1.6 | 4.8 | 0.00 | 0.00 | 0.00 | 72 | 1009.1 |
| 20260504033135 | 3 | 299 | 1.6 | 3.2 | 0.00 | 0.00 | 0.00 | 71 | 1009.1 |
| 20260504032135 | 3 | 281 | 1.6 | 3.2 | 0.00 | 0.00 | 0.00 | 70 | 1009.2 |
| 20260504031135 | 3 | 278 | 1.6 | 3.2 | 0.00 | 0.00 | 0.00 | 70 | 1009.3 |
| 20260504030135 | 3 | 285 | 1.6 | 3.2 | 0.00 | 0.00 | 0.00 | 69 | 1009.2 |
| 20260504025134 | 3 | 282 | 1.6 | 3.2 | 0.00 | 0.00 | 0.00 | 69 | 1009.1 |